K7JKM Weather Reports


Display with metric or nautical units.
time (UTC)temp
F
wind
direction
speed
MPH
gust
MPH
rain 1hr
in
rain 24hr
in
rain mn
in
humidity
%
barometer
mb
20260903033012 56 155 0.0 1.0 0.00 0.49 0.49 74 1009.6
20260903031512 57 137 0.0 2.0 0.00 0.49 0.49 74 1009.5
20260903030008 57 107 0.0 1.0 0.00 0.49 0.49 74 1009.3
20260903024505 58 103 0.0 1.0 0.00 0.49 0.49 74 1009.2
20260903023005 58 118 0.0 1.0 0.00 0.49 0.49 75 1009.3
20260903021509 58 134 0.0 1.0 0.00 0.49 0.49 75 1009.0
20260903020003 58 149 0.0 2.0 0.00 0.49 0.49 75 1009.0
20260903014516 59 90 0.0 1.0 0.00 0.49 0.49 75 1008.9
20260903013015 59 132 0.0 1.0 0.01 0.49 0.49 75 1008.8
20260903011511 59 223 0.0 1.0 0.01 0.49 0.49 75 1008.7
20260903010008 60 162 0.0 0.0 0.01 0.49 0.49 77 1008.4
20260903004518 60 200 0.0 1.0 0.02 0.49 0.49 77 1008.5
20260903003010 60 106 0.0 2.0 0.01 0.48 0.48 77 1008.4
20260903001523 60 185 0.0 1.0 0.01 0.48 0.48 77 1008.0
20260903000032 60 110 0.0 1.0 0.01 0.48 0.48 79 1007.8
20260902234521 60 214 0.0 1.0 0.08 0.47 0.47 79 1007.8
20260902233018 60 283 0.0 0.0 0.13 0.47 0.47 79 1007.7
20260902231514 59 292 0.0 0.0 0.16 0.47 0.47 78 1007.6
20260902230010 59 77 0.0 1.0 0.19 0.47 0.47 76 1007.5
20260902224509 59 121 0.0 1.0 0.12 0.39 0.39 75 1007.5
20260902223027 59 94 0.0 1.0 0.08 0.34 0.34 73 1007.4
20260902221536 60 112 0.0 1.0 0.07 0.31 0.31 72 1007.3
20260902220038 60 108 0.0 7.0 0.05 0.28 0.28 70 1007.2
20260902214520 60 143 0.0 5.0 0.06 0.27 0.27 69 1007.0
20260902213016 59 117 1.0 5.0 0.05 0.26 0.26 68 1006.9
20260902211513 59 154 4.0 9.0 0.03 0.24 0.24 67 1006.9
20260902210029 59 131 2.0 6.0 0.02 0.23 0.23 67 1006.9
20260902204536 60 109 1.0 10.0 0.00 0.21 0.21 68 1006.7
20260902203033 60 155 1.0 5.0 0.01 0.21 0.21 68 1006.6
20260902201530 60 186 1.0 7.0 0.03 0.21 0.21 68 1006.2
20260902200027 59 156 0.0 7.0 0.04 0.21 0.21 71 1006.1
20260902194532 59 107 0.0 5.0 0.06 0.21 0.21 70 1006.3
20260902193020 58 82 0.0 6.0 0.07 0.20 0.20 71 1006.2
20260902191517 58 91 0.0 3.0 0.10 0.18 0.18 71 1006.5
20260902190038 58 104 0.0 5.0 0.12 0.17 0.17 71 1006.5
20260902184533 58 104 0.0 4.0 0.10 0.15 0.15 69 1006.8
20260902183031 58 124 0.0 3.0 0.09 0.13 0.13 69 1007.0
20260902181506 58 119 0.0 4.0 0.05 0.08 0.08 68 1006.8
20260902180005 59 119 0.0 4.0 0.03 0.05 0.05 67 1007.0
20260902174526 58 143 0.0 2.0 0.04 0.05 0.05 68 1007.2
20260902173025 58 140 0.0 3.0 0.04 0.04 0.04 68 1007.3
20260902171519 59 77 0.0 5.0 0.03 0.03 0.03 68 1007.4
20260902170014 59 285 0.0 1.0 0.02 0.02 0.02 67 1007.4
20260902164513 61 159 0.0 1.0 0.01 0.01 0.01 67 1007.2
20260902163010 61 159 0.0 0.0 0.00 0.00 0.00 66 1007.1
20260902161511 61 120 0.0 0.0 0.00 0.00 0.00 66 1006.8
20260902160034 61 120 0.0 0.0 0.00 0.00 0.00 65 1006.9
20260902154530 61 119 0.0 0.0 0.00 0.00 0.00 64 1007.0
20260902153035 61 119 0.0 1.0 0.00 0.00 0.00 64 1007.2
20260902151520 61 119 0.0 1.0 0.00 0.00 0.00 63 1007.3
20260902150017 60 123 0.0 0.0 0.00 0.00 0.00 64 1007.4
20260902144526 60 122 0.0 0.0 0.00 0.00 0.00 65 1007.6
20260902143012 60 123 0.0 0.0 0.00 0.00 0.00 64 1007.7
20260902141530 60 123 0.0 0.0 0.00 0.00 0.00 64 1007.7
20260902140032 60 123 0.0 0.0 0.00 0.00 0.00 64 1007.8
20260902134533 60 123 0.0 1.0 0.00 0.00 0.00 63 1008.0
20260902133028 60 129 0.0 1.0 0.00 0.00 0.00 63 1008.1
20260902131522 60 129 0.0 1.0 0.00 0.00 0.00 63 1008.3
20260902130019 60 102 0.0 1.0 0.00 0.00 0.00 63 1008.6
20260902124521 60 125 0.0 1.0 0.00 0.00 0.00 63 1008.8
20260902123034 60 129 0.0 0.0 0.00 0.00 0.00 63 1008.9
20260902121530 60 129 0.0 2.0 0.00 0.00 0.00 63 1009.2
20260902120005 60 116 0.0 1.0 0.00 0.00 0.00 63 1009.3
20260902114504 60 120 0.0 0.0 0.00 0.00 0.00 64 1009.7
20260902113004 60 148 0.0 1.0 0.00 0.00 0.00 64 1010.1
20260902111522 60 123 0.0 2.0 0.00 0.00 0.00 63 1010.1
20260902110019 60 125 0.0 0.0 0.00 0.00 0.00 64 1010.3
20260902104530 60 110 0.0 2.0 0.00 0.00 0.00 64 1010.6
20260902103017 60 100 0.0 1.0 0.00 0.00 0.00 64 1010.7
20260902101525 60 165 0.0 1.0 0.00 0.00 0.00 64 1010.8
20260902100010 60 125 0.0 3.0 0.00 0.00 0.00 64 1010.8
20260902094503 60 127 0.0 0.0 0.00 0.00 0.00 63 1011.0
20260902093035 60 127 0.0 2.0 0.00 0.00 0.00 63 1011.0
20260902091526 60 118 0.0 0.0 0.00 0.00 0.00 63 1011.2
20260902090024 60 135 0.0 1.0 0.00 0.00 0.00 63 1011.4
20260902084520 59 106 0.0 2.0 0.00 0.00 0.00 64 1011.4
20260902083015 58 114 0.0 0.0 0.00 0.00 0.00 65 1011.6
20260902081513 58 114 0.0 0.0 0.00 0.00 0.00 67 1011.8
20260902080010 58 114 0.0 0.0 0.00 0.00 0.00 66 1011.8
20260902074535 59 114 0.0 0.0 0.00 0.00 0.00 66 1011.8
20260902073029 59 114 0.0 1.0 0.00 0.00 0.00 66 1011.8
20260902071529 59 112 0.0 1.0 0.00 0.00 0.00 66 1011.9
20260902070023 60 128 0.0 0.0 0.00 0.00 0.00 65 1012.0
20260902064522 61 128 0.0 0.0 0.00 0.00 0.00 64 1012.1
20260902063017 61 109 0.0 2.0 0.00 0.00 0.00 63 1012.2
20260902061544 62 96 0.0 1.0 0.00 0.00 0.00 63 1012.3
20260902060035 62 132 0.0 1.0 0.00 0.00 0.00 62 1012.3
20260902054535 62 179 0.0 1.0 0.00 0.00 0.00 62 1012.4
20260902053008 62 131 0.0 0.0 0.00 0.00 0.00 62 1012.6
20260902051504 62 132 0.0 0.0 0.00 0.00 0.00 62 1012.7
20260902050009 62 133 0.0 0.0 0.00 0.00 0.00 61 1012.7
20260902044504 62 138 0.0 1.0 0.00 0.00 0.00 61 1012.6
20260902043003 62 146 0.0 1.0 0.00 0.00 0.00 61 1012.5
20260902041516 63 124 0.0 1.0 0.00 0.00 0.00 60 1012.6
20260902040013 63 144 0.0 1.0 0.00 0.00 0.00 60 1012.6
20260902034512 63 151 0.0 1.0 0.00 0.00 0.00 59 1012.5